Location: Владивосток
(43.1151°N, 131.8856°E)
Time: 08:53:36
(UTC+10:00)

DUCHIFAT 1 - Pass Details

Date: 06 July 2022
Orbit: 579 x 596 km, 98.0° (Epoch: 18 August)

Event Time Altitude Azimuth Distance (km) Brightness Sun altitude
Rises 03:23:13 0° 19° (NNE) 2,849 ? -18.0°
Reaches altitude 10° 03:25:29 10° 26° (NNE) 1,943 ? -17.8°
Maximum altitude 03:29:31 44° 99° (E) 835 ? -17.5°
Enters shadow 03:32:01 21° 162° (SSE) 1,369 ? -17.2°
